N17X -KHND

Flight info

Callsign N17X
Flight time N/A
Altitude VFR
Route
Aircraft HELI/L-DOV/C

Departure

Time N/A
Airport -

Arrival

Time 2026-04-21 02:52
Airport Henderson Executive Airport (KHND)
Time Latitude Longitude Altitude Speed Heading
2026-04-21 02:11 36.12133 -114.65726 3044 ft 107 kts 216°
2026-04-21 02:11 36.11638 -114.66438 2971 ft 113 kts 225°
2026-04-21 02:11 36.11143 -114.67258 2825 ft 124 kts 227°
2026-04-21 02:12 36.10666 -114.68172 2681 ft 128 kts 227°
2026-04-21 02:12 36.10234 -114.69140 2574 ft 127 kts 233°
2026-04-21 02:12 36.09793 -114.70063 2546 ft 121 kts 229°
2026-04-21 02:12 36.09208 -114.70742 2545 ft 115 kts 208°
2026-04-21 02:13 36.08505 -114.71185 2546 ft 109 kts 201°
2026-04-21 02:13 36.07796 -114.71526 2559 ft 110 kts 199°
2026-04-21 02:13 36.07084 -114.71959 2552 ft 115 kts 205°
2026-04-21 02:13 36.06386 -114.72402 2551 ft 109 kts 203°
2026-04-21 02:14 36.05704 -114.72789 2551 ft 107 kts 192°
2026-04-21 02:14 36.04969 -114.72890 2565 ft 106 kts 181°
2026-04-21 02:14 36.04232 -114.72778 2562 ft 110 kts 163°
2026-04-21 02:14 36.03530 -114.72465 2561 ft 105 kts 165°
2026-04-21 02:15 36.02851 -114.72381 2558 ft 91 kts 188°
2026-04-21 02:15 36.02285 -114.72619 2564 ft 81 kts 205°
2026-04-21 02:15 36.01841 -114.72959 2563 ft 69 kts 198°
2026-04-21 02:15 36.01436 -114.73017 2578 ft 58 kts 165°
2026-04-21 02:16 36.01039 -114.72985 2570 ft 59 kts 207°
2026-04-21 02:16 36.00792 -114.73355 2583 ft 57 kts 230°
2026-04-21 02:16 36.00664 -114.73907 2576 ft 79 kts 259°
2026-04-21 02:16 36.00898 -114.74550 2571 ft 91 kts 304°
2026-04-21 02:17 36.01505 -114.74793 2589 ft 100 kts 12°
2026-04-21 02:17 36.02012 -114.74390 2592 ft 79 kts 67°
2026-04-21 02:17 36.02249 -114.73874 2712 ft 61 kts 99°
2026-04-21 02:17 36.02173 -114.73397 2806 ft 60 kts 143°
2026-04-21 02:18 36.01802 -114.73134 2669 ft 66 kts 173°
2026-04-21 02:18 36.01324 -114.73248 2531 ft 71 kts 204°
2026-04-21 02:18 36.01257 -114.73747 2560 ft 67 kts 280°
2026-04-21 02:18 36.01766 -114.74030 2622 ft 104 kts 353°
2026-04-21 02:19 36.02564 -114.73684 2696 ft 141 kts 34°
2026-04-21 02:19 36.03133 -114.72745 2428 ft 133 kts 86°
2026-04-21 02:19 36.02982 -114.71844 2460 ft 88 kts 137°
2026-04-21 02:19 36.02501 -114.71742 2519 ft 75 kts 209°
2026-04-21 02:20 36.02203 -114.72312 2464 ft 80 kts 242°
2026-04-21 02:20 36.02006 -114.72936 2443 ft 73 kts 237°
2026-04-21 02:20 36.01672 -114.73279 2423 ft 57 kts 189°
2026-04-21 02:20 36.01338 -114.73218 2466 ft 43 kts 171°
2026-04-21 02:21 36.00989 -114.73273 2307 ft 56 kts 200°
2026-04-21 02:21 36.00688 -114.73489 2339 ft 45 kts 232°
2026-04-21 02:21 36.00739 -114.73881 2378 ft 57 kts 281°
2026-04-21 02:21 36.00981 -114.74253 2364 ft 46 kts 307°
2026-04-21 02:22 36.01178 -114.74408 2353 ft 34 kts 316°
2026-04-21 02:22 36.01396 -114.74464 2363 ft 16 kts 317°
2026-04-21 02:22 36.01608 -114.74309 2364 ft 41 kts 79°
2026-04-21 02:22 36.01713 -114.73999 2405 ft 42 kts 81°
2026-04-21 02:23 36.01722 -114.73574 2407 ft 43 kts 116°
2026-04-21 02:23 36.01593 -114.73297 2420 ft 35 kts 133°
2026-04-21 02:23 36.01446 -114.73364 2482 ft 45 kts 218°
2026-04-21 02:23 36.01361 -114.73703 2471 ft 38 kts 220°
2026-04-21 02:24 36.01358 -114.74000 2326 ft 40 kts 240°
2026-04-21 02:24 36.01394 -114.74331 2419 ft 40 kts 253°
2026-04-21 02:24 36.01508 -114.74689 2311 ft 43 kts 254°
2026-04-21 02:24 36.01448 -114.74726 2094 ft 35 kts 155°
2026-04-21 02:25 36.01165 -114.74584 2073 ft 53 kts 162°
2026-04-21 02:25 36.00859 -114.74374 2269 ft 54 kts 108°
2026-04-21 02:25 36.01151 -114.73922 2262 ft 83 kts 34°
2026-04-21 02:25 36.01628 -114.73549 2299 ft 88 kts 28°
2026-04-21 02:26 36.02247 -114.73174 2382 ft 109 kts 27°
2026-04-21 02:26 36.02807 -114.72527 2516 ft 120 kts 61°
2026-04-21 02:26 36.03578 -114.71956 2407 ft 141 kts 13°
2026-04-21 02:26 36.04482 -114.72251 2480 ft 134 kts 320°
2026-04-21 02:27 36.05130 -114.73042 2562 ft 128 kts 304°
2026-04-21 02:27 36.05661 -114.73918 2543 ft 128 kts 298°
2026-04-21 02:27 36.06229 -114.74786 2543 ft 131 kts 302°
2026-04-21 02:27 36.06910 -114.75570 2573 ft 138 kts 311°
2026-04-21 02:28 36.07668 -114.76381 2551 ft 148 kts 312°
2026-04-21 02:28 36.08450 -114.77191 2526 ft 143 kts 314°
2026-04-21 02:28 36.09195 -114.77961 2551 ft 136 kts 311°
2026-04-21 02:28 36.09749 -114.78840 2553 ft 127 kts 292°
2026-04-21 02:29 36.10115 -114.79822 2550 ft 125 kts 282°
2026-04-21 02:29 36.10471 -114.80807 2550 ft 127 kts 286°
2026-04-21 02:29 36.10930 -114.81751 2555 ft 130 kts 295°
2026-04-21 02:29 36.11428 -114.82705 2550 ft 135 kts 293°
2026-04-21 02:30 36.11928 -114.83694 2534 ft 137 kts 291°
2026-04-21 02:30 36.12356 -114.84772 2505 ft 140 kts 282°
2026-04-21 02:30 36.12636 -114.85908 2493 ft 136 kts 275°
2026-04-21 02:30 36.12795 -114.87019 2429 ft 125 kts 271°
2026-04-21 02:31 36.12938 -114.88051 2437 ft 120 kts 272°
2026-04-21 02:31 36.13080 -114.89074 2483 ft 128 kts 268°
2026-04-21 02:31 36.13289 -114.90130 2736 ft 126 kts 269°
2026-04-21 02:31 36.13546 -114.91161 2917 ft 126 kts 274°
2026-04-21 02:32 36.13791 -114.92218 2958 ft 131 kts 272°
2026-04-21 02:32 36.13986 -114.93321 2947 ft 132 kts 267°
2026-04-21 02:32 36.14146 -114.94436 2951 ft 131 kts 266°
2026-04-21 02:32 36.14283 -114.95544 2946 ft 128 kts 266°
2026-04-21 02:33 36.14441 -114.96609 2944 ft 122 kts 266°
2026-04-21 02:33 36.14604 -114.97606 2932 ft 118 kts 270°
2026-04-21 02:33 36.14726 -114.98620 2940 ft 121 kts 268°
2026-04-21 02:33 36.14854 -114.99664 2949 ft 125 kts 270°
2026-04-21 02:34 36.15063 -115.00726 2955 ft 129 kts 273°
2026-04-21 02:34 36.15308 -115.01798 2940 ft 128 kts 276°
2026-04-21 02:34 36.15571 -115.02852 2952 ft 128 kts 277°
2026-04-21 02:34 36.15843 -115.03896 2976 ft 126 kts 277°
2026-04-21 02:35 36.16123 -115.04914 3026 ft 125 kts 277°
2026-04-21 02:35 36.16354 -115.05932 3138 ft 121 kts 272°
2026-04-21 02:35 36.16470 -115.06966 3239 ft 123 kts 266°
2026-04-21 02:35 36.16534 -115.08056 3244 ft 130 kts 266°
2026-04-21 02:36 36.16575 -115.09190 3236 ft 134 kts 263°
2026-04-21 02:36 36.16643 -115.10309 3379 ft 128 kts 265°
2026-04-21 02:36 36.16719 -115.11394 3454 ft 122 kts 267°
2026-04-21 02:36 36.16792 -115.12401 3474 ft 113 kts 268°
2026-04-21 02:37 36.16806 -115.13302 3488 ft 99 kts 256°
2026-04-21 02:37 36.16765 -115.14130 3488 ft 95 kts 257°
2026-04-21 02:37 36.16710 -115.14925 3483 ft 89 kts 247°
2026-04-21 02:37 36.16437 -115.15563 3488 ft 82 kts 219°
2026-04-21 02:38 36.16182 -115.15899 3486 ft 80 kts 214°
2026-04-21 02:38 36.15785 -115.16356 3486 ft 77 kts 212°
2026-04-21 02:38 36.15227 -115.16826 3485 ft 71 kts 204°
2026-04-21 02:38 36.14755 -115.16950 3487 ft 70 kts 184°
2026-04-21 02:39 36.14257 -115.16959 3512 ft 72 kts 187°
2026-04-21 02:39 36.13905 -115.17029 3448 ft 82 kts 198°
2026-04-21 02:39 36.13379 -115.17402 3324 ft 93 kts 206°
2026-04-21 02:39 36.12811 -115.17817 3164 ft 96 kts 206°
2026-04-21 02:40 36.12204 -115.18165 3051 ft 98 kts 202°
2026-04-21 02:40 36.11589 -115.18466 3015 ft 90 kts 195°
2026-04-21 02:40 36.10997 -115.18558 3018 ft 82 kts 186°
2026-04-21 02:40 36.10459 -115.18584 3013 ft 73 kts 184°
2026-04-21 02:41 36.09982 -115.18676 3021 ft 67 kts 199°
2026-04-21 02:41 36.09536 -115.18847 3020 ft 69 kts 200°
2026-04-21 02:41 36.09084 -115.18664 3013 ft 83 kts 141°
2026-04-21 02:41 36.09061 -115.17883 3017 ft 107 kts 77°
2026-04-21 02:42 36.09649 -115.17306 3013 ft 113 kts 18°
2026-04-21 02:42 36.10395 -115.17375 3018 ft 105 kts 354°
2026-04-21 02:42 36.11123 -115.17285 3016 ft 105 kts
2026-04-21 02:42 36.11834 -115.17179 3014 ft 102 kts
2026-04-21 02:43 36.12516 -115.17213 3006 ft 96 kts 328°
2026-04-21 02:43 36.12809 -115.17778 3117 ft 68 kts 259°
2026-04-21 02:43 36.12619 -115.18216 3284 ft 58 kts 211°
2026-04-21 02:43 36.12186 -115.18354 3249 ft 71 kts 185°
2026-04-21 02:44 36.11671 -115.18402 3234 ft 76 kts 189°
2026-04-21 02:44 36.11228 -115.18760 3234 ft 84 kts 224°
2026-04-21 02:44 36.10776 -115.19214 3225 ft 86 kts 195°
2026-04-21 02:44 36.10198 -115.19153 3219 ft 86 kts 161°
2026-04-21 02:45 36.09655 -115.19049 3221 ft 79 kts 198°
2026-04-21 02:45 36.09196 -115.19416 3223 ft 77 kts 212°
2026-04-21 02:45 36.08756 -115.19868 3222 ft 87 kts 214°
2026-04-21 02:45 36.08275 -115.20329 3225 ft 89 kts 206°
2026-04-21 02:46 36.07716 -115.20625 3229 ft 91 kts 194°
2026-04-21 02:46 36.07077 -115.20837 3216 ft 97 kts 191°
2026-04-21 02:46 36.06416 -115.21055 3221 ft 99 kts 194°
2026-04-21 02:46 36.05736 -115.21230 3223 ft 100 kts 191°
2026-04-21 02:47 36.05053 -115.21384 3216 ft 98 kts 184°
2026-04-21 02:47 36.04406 -115.21278 3221 ft 92 kts 161°
2026-04-21 02:47 36.03862 -115.20902 3225 ft 90 kts 151°
2026-04-21 02:47 36.03348 -115.20404 3227 ft 98 kts 149°
2026-04-21 02:48 36.02818 -115.19845 3209 ft 100 kts 147°
2026-04-21 02:48 36.02286 -115.19324 3221 ft 96 kts 150°
2026-04-21 02:48 36.01776 -115.18827 3253 ft 90 kts 150°
2026-04-21 02:48 36.01304 -115.18375 3254 ft 82 kts 149°
2026-04-21 02:49 36.00846 -115.17977 3259 ft 80 kts 152°
2026-04-21 02:49 36.00370 -115.17614 3264 ft 81 kts 161°
2026-04-21 02:49 35.99816 -115.17470 3262 ft 83 kts 180°
2026-04-21 02:49 35.99252 -115.17535 3253 ft 79 kts 185°
2026-04-21 02:50 35.98721 -115.17447 3260 ft 77 kts 173°
2026-04-21 02:50 35.98213 -115.17231 3260 ft 80 kts 161°
2026-04-21 02:50 35.97728 -115.16804 3264 ft 91 kts 152°
2026-04-21 02:50 35.97280 -115.16224 3252 ft 102 kts 121°
2026-04-21 02:51 35.97384 -115.15337 3259 ft 117 kts 62°
2026-04-21 02:51 35.98081 -115.14826 3252 ft 120 kts
2026-04-21 02:51 35.98882 -115.14768 3260 ft 113 kts 11°
2026-04-21 02:51 35.99477 -115.14235 3152 ft 102 kts 79°
2026-04-21 02:52 35.99329 -115.13570 3064 ft 76 kts 160°
2026-04-21 02:52 35.98846 -115.13499 2810 ft 66 kts 188°
2026-04-21 02:52 35.98451 -115.13521 2532 ft 47 kts 187°
2026-04-21 02:52 35.98195 -115.13525 2504 ft 28 kts 192°
2026-04-21 02:53 35.98032 -115.13522 2470 ft 18 kts 191°
2026-04-21 02:53 35.97926 -115.13517 2435 ft 16 kts 195°
2026-04-21 02:53 35.97856 -115.13513 2443 ft 4 kts 204°
2026-04-21 02:53 35.97830 -115.13538 2452 ft 11 kts 215°
2026-04-21 02:54 35.97779 -115.13612 2455 ft 9 kts 220°
2026-04-21 02:54 35.97741 -115.13683 2446 ft 11 kts 242°
2026-04-21 02:54 35.97734 -115.13765 2436 ft 4 kts 237°
2026-04-21 02:54 35.97727 -115.13785 2436 ft 1 kts 233°
2026-04-21 02:55 35.97717 -115.13797 2447 ft 4 kts 224°
2026-04-21 02:55 35.97688 -115.13810 2447 ft 2 kts 208°
2026-04-21 02:55 35.97653 -115.13829 2452 ft 10 kts 208°
2026-04-21 02:55 35.97611 -115.13855 2458 ft 5 kts 204°
2026-04-21 02:56 35.97581 -115.13861 2457 ft 1 kts 205°
2026-04-21 02:56 35.97580 -115.13877 2433 ft 0 kts 181°